Theta_e
318 313 306 305 306 307 306 305 305 306 308 310 312 317 322 318 319 323 324 323 323 323 323 321 319 318 320 322 321 322 323 322 321 321 320 319 318 317 318 317 317 318 319 320 322 321 320 321 320 320 321 322 321 321 321 320 321 322 323 323 323 324 321 315 313 318 324 326 329 328 328 328 325 325 327 326 324 321 319 319 319 316 315 316 317 313 320
318 313 307 305 306 307 306 306 305 305 307 308 312 319 318 318 319 321 324 325 323 324 325 325 324 324 324 325 324 323 323 323 323 323 322 322 321 319 318 319 318 319 321 321 322 321 319 319 321 321 322 322 321 320 320 321 322 322 325 326 322 320 321 317 313 315 318 319 322 323 324 326 323 326 331 328 327 329 326 324 323 317 314 316 316 313 319
318 314 308 305 306 307 306 307 306 306 306 307 313 319 318 320 322 322 324 326 324 324 325 326 326 327 326 325 326 326 325 325 325 325 325 324 322 321 321 320 320 320 321 322 323 322 320 320 322 321 321 322 321 319 320 322 320 322 332 335 322 320 323 319 312 312 314 314 315 317 319 323 323 328 333 331 328 329 324 320 318 316 317 319 316 313 319
318 315 308 305 306 307 306 307 307 306 305 307 313 319 320 320 323 322 323 324 324 324 324 324 326 327 327 327 327 326 325 325 325 325 326 323 323 323 323 322 322 321 321 323 323 324 322 321 323 323 323 323 321 320 320 319 323 337 341 336 325 324 326 323 317 315 314 314 319 323 322 319 318 322 328 328 328 330 326 319 315 318 320 318 318 319 320
318 315 308 304 306 306 306 308 307 306 306 307 313 320 320 320 323 321 321 323 325 325 324 324 325 325 325 326 327 326 326 326 326 324 325 324 324 324 324 323 323 322 324 324 323 324 324 323 323 322 323 324 321 321 319 320 336 348 339 326 327 325 320 322 323 320 319 321 324 326 323 320 318 320 324 327 329 330 325 319 320 324 320 315 321 326 321
317 314 307 304 306 306 307 308 308 307 306 308 314 321 320 320 321 320 320 322 323 326 326 324 324 324 324 325 327 327 326 326 326 326 326 325 325 325 324 323 323 324 326 325 324 325 323 323 324 324 324 324 322 321 320 323 338 342 327 321 331 324 316 321 323 320 322 325 324 325 324 323 322 321 321 325 328 328 323 321 326 328 319 315 324 329 323
315 311 307 304 306 307 307 308 308 308 306 309 316 320 318 319 320 320 321 320 320 322 322 321 323 324 325 326 327 327 327 327 327 327 326 326 325 325 326 326 326 327 327 326 327 327 323 322 326 328 326 325 324 323 323 325 329 329 322 325 330 324 320 326 323 318 321 324 323 325 324 321 322 322 323 326 327 327 325 324 327 328 323 323 329 329 328
314 309 306 305 306 307 308 307 308 308 307 311 318 318 318 320 321 321 319 318 318 317 316 318 319 322 325 326 327 327 327 327 327 327 326 327 327 326 326 328 328 327 328 327 328 328 328 327 330 329 327 326 326 325 325 325 326 324 323 326 327 323 323 329 324 316 318 321 324 324 322 321 320 320 322 324 323 324 324 323 326 326 323 327 329 327 329
311 307 305 305 306 307 308 308 308 307 308 313 317 316 317 318 319 321 319 318 319 318 317 319 318 318 321 323 326 327 327 327 328 327 327 327 327 327 326 328 328 328 328 328 327 328 329 329 329 329 328 327 326 326 325 326 326 324 323 326 326 324 325 328 323 314 313 320 322 320 322 321 317 317 320 322 320 321 322 324 326 325 322 324 324 322 326
309 307 306 306 307 308 309 308 308 308 309 313 315 314 315 316 318 320 319 318 321 319 318 319 318 318 320 321 324 326 326 326 326 327 327 325 325 326 326 327 328 329 329 329 328 326 326 327 327 327 327 326 325 325 324 324 325 325 324 325 324 325 325 324 319 313 312 318 320 319 319 316 313 317 321 322 323 323 323 325 328 329 326 323 322 325 333
308 306 306 308 308 309 309 308 308 308 309 312 313 313 314 314 317 319 318 318 319 318 317 318 318 318 319 320 321 323 324 325 325 327 329 327 325 325 326 327 328 329 330 328 325 325 326 326 325 326 326 326 325 325 323 323 325 326 325 324 324 326 326 323 320 314 312 317 321 319 316 313 315 325 330 327 324 324 324 325 326 331 331 328 330 337 343
307 306 307 309 310 310 309 308 308 308 309 310 312 312 311 311 314 318 319 320 319 318 317 317 318 318 318 319 321 321 322 323 323 324 326 326 326 326 326 327 328 329 328 325 324 326 326 326 326 326 326 325 325 324 324 324 324 325 325 325 325 327 325 323 323 317 313 318 320 315 313 316 323 333 334 330 327 327 327 327 329 330 333 337 338 339 341
306 307 308 309 310 309 308 308 308 309 308 309 311 311 311 311 313 316 319 320 319 318 318 317 316 315 315 316 318 318 319 320 320 321 322 323 324 325 326 326 328 327 325 323 325 327 328 328 328 327 327 327 326 325 324 324 323 323 324 324 325 326 324 323 322 319 316 317 315 313 317 324 330 335 335 331 330 329 327 325 326 329 334 337 338 339 345
306 308 309 310 310 309 309 308 308 309 308 308 310 311 310 311 312 315 318 320 319 318 317 316 316 316 315 314 315 314 315 316 317 318 320 321 323 325 325 325 326 325 323 324 327 328 329 329 327 325 326 325 324 323 325 325 324 324 324 324 325 325 325 323 320 319 318 314 312 315 319 322 326 330 332 330 328 328 327 322 325 330 334 335 339 344 348
307 308 309 309 310 309 309 309 309 309 309 308 310 311 310 310 311 312 316 318 318 318 317 316 317 317 317 317 317 317 316 316 317 317 319 320 322 323 323 325 326 324 324 325 328 329 329 327 321 318 318 319 318 320 324 324 324 324 324 325 325 326 328 326 318 317 319 314 312 316 316 316 321 325 328 329 327 328 330 324 323 332 335 335 341 345 347
307 308 309 309 310 310 310 309 308 309 309 308 310 311 310 310 310 311 314 316 317 318 317 316 317 317 316 317 317 317 317 317 318 319 319 319 320 320 322 324 326 324 325 327 328 329 329 326 321 317 317 319 320 320 323 323 322 323 324 324 325 327 330 330 321 316 317 315 313 315 314 316 323 327 328 330 328 331 331 321 319 330 337 336 339 345 345
307 307 308 309 309 310 310 309 308 309 308 308 310 312 311 310 310 311 313 314 316 317 316 316 316 315 316 317 318 318 317 317 319 321 321 320 320 322 322 324 324 324 326 327 328 329 328 325 322 319 320 326 327 322 322 321 319 321 323 324 325 326 327 326 320 314 315 316 314 314 315 321 331 333 330 329 332 333 326 316 317 331 337 335 339 345 346
307 307 308 308 309 309 310 309 309 309 308 308 310 311 311 310 310 311 312 313 315 317 316 316 316 315 316 317 319 320 320 319 321 322 322 321 322 323 323 323 324 325 326 326 328 329 326 325 324 321 321 330 331 324 323 322 318 320 325 325 324 325 324 322 318 314 314 315 314 314 317 325 335 336 331 332 333 327 319 317 326 336 337 335 338 342 346
307 308 307 307 308 308 309 309 309 309 308 308 310 311 311 311 310 310 311 313 314 316 317 317 316 316 317 317 317 317 318 319 321 322 322 322 323 322 322 323 325 326 326 327 330 329 326 325 327 326 323 326 329 326 325 325 323 324 328 325 322 322 323 321 319 316 315 316 315 313 317 326 334 334 335 334 328 320 320 329 340 338 335 337 339 340 344
306 307 307 307 307 308 309 309 309 309 308 308 309 311 312 311 310 310 310 312 313 314 315 316 316 316 316 316 316 317 317 317 318 319 321 322 322 321 321 323 324 325 327 327 328 328 326 324 328 329 325 325 328 328 327 328 329 329 330 327 325 325 321 318 318 319 317 316 316 314 317 327 334 334 336 334 327 324 330 339 342 339 336 338 339 342 346
306 307 307 307 307 308 308 309 309 309 309 308 309 310 312 311 311 310 310 312 312 313 315 316 316 316 316 316 316 317 318 317 317 317 318 319 319 320 322 324 324 325 327 328 327 328 327 327 328 329 328 328 330 329 325 325 328 331 332 330 328 328 323 318 321 324 319 317 320 322 325 332 334 332 334 334 332 334 336 336 337 339 340 337 339 345 346
306 307 307 307 307 308 308 309 309 309 309 308 308 310 311 311 311 310 310 311 311 312 313 314 314 314 314 314 314 315 315 316 316 316 316 316 317 319 321 322 323 323 325 327 328 329 329 329 330 330 329 329 330 330 326 325 326 330 332 328 325 328 330 326 327 329 326 323 326 330 332 334 333 332 336 339 334 334 336 334 333 339 340 338 340 344 343
306 307 306 307 307 308 308 309 309 309 309 308 309 311 311 311 311 310 310 311 310 310 311 312 313 313 313 313 313 313 314 314 314 315 315 315 316 317 318 319 321 321 323 325 326 328 329 330 330 330 330 329 328 328 329 327 326 330 332 328 327 331 334 332 330 331 330 329 330 331 334 335 333 331 335 339 335 334 336 335 333 337 340 339 339 338 338
307 307 307 307 308 309 309 310 310 309 309 309 309 311 311 311 311 310 310 311 311 311 312 313 313 314 315 314 314 314 314 314 314 314 314 315 316 316 316 318 319 320 324 325 324 324 326 328 331 331 331 331 330 328 327 326 327 329 329 329 330 332 331 330 330 330 328 329 332 335 334 336 337 333 333 336 337 337 339 339 337 338 340 339 337 337 339
306 307 307 308 309 310 309 309 309 309 309 309 310 310 310 311 310 310 310 311 311 312 314 314 313 314 314 314 313 314 314 315 315 315 314 315 315 315 316 318 319 321 324 324 323 323 325 327 329 330 331 332 330 328 327 327 328 330 329 327 329 331 329 328 329 329 328 329 331 332 332 335 338 336 333 334 336 338 340 342 340 339 340 341 342 340 339
306 306 307 308 309 310 309 309 309 309 309 309 309 310 311 311 311 310 310 310 310 311 312 312 312 313 314 313 313 313 313 313 314 316 316 316 315 314 315 315 317 319 320 320 321 324 325 326 327 328 330 331 330 329 329 330 330 330 329 328 328 330 329 328 329 330 330 330 331 332 331 331 335 337 336 338 338 338 341 342 339 339 341 343 343 343 341
306 306 307 308 309 310 309 309 309 309 309 309 309 309 310 311 310 310 310 310 310 312 312 313 313 314 313 313 312 312 312 312 313 314 316 316 316 316 316 315 316 316 317 319 322 324 324 325 326 326 327 329 329 329 330 331 331 330 329 329 329 328 329 329 330 330 331 331 332 334 334 333 335 336 337 339 338 338 340 341 338 338 341 342 344 345 345
306 306 306 308 309 309 309 309 309 310 310 309 309 309 310 310 310 310 310 309 310 311 312 312 312 312 312 312 312 312 312 313 313 313 315 316 317 318 318 318 317 316 318 321 324 325 324 325 326 325 324 326 328 327 329 330 330 330 329 329 329 329 330 330 329 330 331 331 332 334 335 335 336 336 336 337 337 337 338 340 340 339 341 343 344 345 346
305 305 306 306 307 308 309 309 309 309 309 309 310 310 309 310 310 309 309 309 309 310 310 309 310 312 313 313 313 313 313 314 314 314 315 316 317 318 320 319 318 318 320 322 324 324 324 324 323 323 324 325 325 325 328 328 327 328 329 330 330 330 330 330 330 330 330 329 330 333 334 333 334 334 335 338 339 337 337 338 340 341 341 341 341 342 344
305 306 306 306 307 308 309 309 309 308 308 308 309 309 308 309 310 309 309 309 309 309 309 310 311 312 313 313 313 314 315 316 315 315 315 316 317 318 319 320 319 320 322 322 323 323 323 323 323 323 323 323 323 324 326 326 325 325 327 330 331 329 328 328 329 329 329 329 331 333 333 334 334 334 335 337 340 340 339 340 341 342 342 341 341 342 342
305 305 306 306 307 308 308 308 308 308 308 309 309 308 308 311 311 308 308 309 309 309 310 311 311 312 313 314 315 315 316 317 317 317 317 316 317 318 319 319 321 322 322 322 323 323 322 323 323 322 323 322 321 322 324 324 323 324 327 329 329 329 329 329 330 330 330 330 330 329 330 332 334 335 335 338 339 340 341 344 344 344 343 343 342 342 341
305 305 305 306 306 307 308 309 309 309 309 309 309 308 309 310 309 308 308 309 309 309 310 312 313 314 315 316 317 316 317 317 318 318 317 317 316 317 319 319 320 321 321 322 323 322 322 323 322 322 323 324 322 321 322 323 323 324 326 327 326 327 329 330 330 330 329 328 328 328 328 329 332 335 336 337 339 340 342 344 345 345 345 344 344 344 344
305 305 305 306 306 307 307 308 308 308 308 309 309 309 308 308 307 307 308 309 309 310 312 314 315 316 316 316 317 317 317 318 318 318 318 318 318 318 319 319 319 320 321 321 322 322 322 322 321 322 325 326 323 321 322 323 323 323 323 323 324 324 325 326 327 328 328 327 327 327 327 329 332 334 335 336 339 341 342 343 342 343 343 343 342 343 344
305 305 305 306 306 306 307 307 307 308 308 309 309 309 309 308 308 307 308 309 310 310 312 313 316 316 316 316 318 318 317 318 320 320 320 320 320 319 319 319 319 321 321 321 321 322 321 322 321 322 324 324 323 322 323 324 323 322 322 322 322 323 322 323 323 326 328 329 327 326 326 331 336 336 336 337 338 340 342 343 340 340 340 340 340 341 342
305 305 306 306 306 306 306 306 307 308 309 309 309 309 310 310 309 308 308 309 311 312 313 315 316 317 317 317 320 319 317 318 319 319 321 322 320 319 319 320 320 321 321 321 321 322 322 322 323 323 323 323 324 325 324 323 323 322 322 323 323 323 324 324 324 325 326 329 329 328 329 333 335 336 337 338 338 338 340 340 337 337 338 338 340 340 341
306 306 306 306 305 306 307 308 308 309 309 309 310 310 311 311 310 308 308 309 310 312 315 316 317 318 318 317 319 319 317 318 318 319 320 322 320 319 320 320 321 321 322 322 322 322 322 323 324 323 322 323 325 325 323 323 324 324 323 323 324 324 324 325 325 326 327 330 332 333 333 334 334 335 338 339 338 338 338 338 336 337 339 339 340 340 339
307 306 307 306 307 308 308 309 309 309 309 309 310 310 310 310 310 309 308 309 310 311 312 313 315 317 316 316 318 317 317 318 318 319 322 323 321 319 320 320 321 322 322 322 322 322 324 325 324 322 322 323 324 324 324 325 326 325 325 325 326 325 326 326 326 325 327 330 333 335 334 332 333 335 337 339 339 338 338 337 337 339 339 339 338 338 338
306 306 307 308 308 308 310 311 311 310 310 310 310 311 311 311 311 311 310 310 311 312 312 312 314 315 314 315 317 317 317 317 318 319 322 324 323 322 319 320 323 323 322 322 322 322 323 324 323 322 323 323 323 324 326 327 327 326 327 328 328 328 328 328 328 328 328 329 331 333 333 333 334 335 337 339 339 338 338 338 338 339 337 337 337 338 339
307 307 307 308 308 309 311 312 310 309 310 310 312 313 314 313 314 314 313 312 313 314 314 314 315 315 314 315 317 316 316 317 317 319 321 323 324 324 322 323 325 324 322 324 325 324 323 324 324 323 324 325 327 328 329 329 329 330 331 332 332 331 331 330 330 331 330 330 330 330 330 331 331 333 336 339 339 338 338 339 339 338 337 338 339 340 340
308 308 308 308 309 310 310 310 309 309 311 312 313 315 316 315 316 316 316 315 315 315 315 314 315 314 314 315 317 317 316 316 317 319 321 322 324 325 325 326 326 324 323 325 326 324 324 326 327 326 326 328 330 330 330 331 332 333 333 333 333 334 334 332 332 332 331 330 330 329 329 329 329 329 333 337 338 338 337 338 338 338 338 339 340 339 339
308 309 309 309 309 309 309 309 310 311 313 315 315 315 316 316 316 316 317 317 317 316 315 315 316 317 317 316 317 318 318 317 317 318 319 322 324 324 325 326 325 324 324 325 325 325 326 326 326 327 328 329 329 330 331 332 332 332 333 333 333 334 335 334 334 333 331 331 331 330 330 331 330 330 333 336 337 337 337 337 338 337 337 339 339 338 338
307 307 307 307 308 308 309 311 313 314 315 315 315 314 315 317 317 317 317 317 317 318 317 317 318 320 320 318 318 319 319 319 318 318 320 323 324 324 326 326 325 324 324 325 324 325 327 327 326 328 329 329 328 329 331 332 332 331 332 333 333 335 335 334 335 335 333 332 332 332 333 333 332 332 334 336 337 337 337 338 337 337 338 338 338 337 337
306 306 307 308 309 311 312 313 315 315 315 314 315 315 316 317 318 318 317 317 317 318 319 319 319 320 320 319 320 320 320 320 320 320 321 323 325 325 326 326 324 323 324 323 323 325 327 326 326 327 328 328 327 329 331 332 330 331 332 332 333 336 337 337 336 335 335 334 333 332 334 335 333 333 334 335 336 337 338 338 338 337 337 338 337 337 336
307 308 309 310 311 312 314 315 315 315 315 314 314 315 316 316 316 317 318 318 318 319 319 319 320 322 322 322 321 321 321 321 322 322 322 324 324 324 324 323 323 323 323 322 322 323 324 324 324 325 326 327 327 329 331 331 330 330 331 332 333 334 336 338 338 336 334 334 334 334 334 335 335 334 334 335 335 337 338 338 337 336 337 338 337 336 334
309 309 310 310 311 311 313 314 314 314 314 314 313 314 314 315 315 316 317 317 317 318 319 319 320 322 323 322 322 322 322 322 322 323 324 323 323 323 321 322 322 322 322 321 322 322 322 322 322 324 326 326 328 329 331 330 329 330 331 331 332 332 333 335 337 336 335 334 334 334 334 335 336 336 336 335 335 337 338 338 337 337 337 337 336 334 333
309 309 309 310 311 311 312 313 314 314 315 315 314 313 314 314 315 315 316 316 317 318 320 320 321 322 323 323 322 323 323 323 323 324 324 323 324 324 323 323 323 323 322 323 323 323 322 322 323 324 327 327 328 329 330 330 330 330 331 332 332 332 332 333 335 335 335 336 336 336 336 336 336 337 337 336 336 337 337 337 337 336 337 336 335 334 333
309 309 309 310 310 311 312 313 314 315 315 315 314 314 314 314 315 316 316 317 318 319 320 321 322 322 322 323 323 323 324 324 324 325 324 323 324 324 324 324 324 324 324 325 325 324 323 323 324 326 327 328 328 329 329 329 329 330 331 331 331 331 332 333 334 335 335 336 336 337 337 337 337 337 338 338 338 337 337 337 336 336 335 335 334 332 332
308 308 309 310 310 311 313 314 313 314 315 314 314 314 313 314 315 316 316 317 318 320 320 321 323 323 322 322 323 324 324 323 324 324 324 323 325 325 324 325 326 325 325 325 325 323 323 324 325 327 328 328 328 328 328 329 328 329 329 330 330 330 331 332 333 334 335 335 335 336 337 338 338 338 338 338 338 337 336 336 336 336 335 334 332 331 331
307 308 309 310 310 310 311 312 313 314 314 314 313 314 314 314 315 315 314 315 318 320 320 321 322 323 323 322 323 323 324 323 323 324 324 324 325 325 325 326 326 326 325 324 323 323 324 325 326 328 329 328 328 327 328 328 328 328 329 329 329 330 330 331 333 335 336 335 335 336 336 336 336 337 337 337 337 336 335 335 335 334 333 332 330 330 330
307 307 309 310 310 310 310 311 312 313 314 314 314 314 313 314 315 314 313 314 317 320 321 321 321 322 322 322 321 322 323 324 323 323 323 324 324 324 325 325 325 325 324 324 323 323 324 325 326 328 329 329 328 328 328 328 328 328 328 329 330 331 331 331 332 334 335 335 334 334 334 334 335 335 336 335 334 334 334 334 333 333 331 330 329 330 330
306 307 307 309 310 310 311 311 311 312 314 314 314 313 312 313 314 314 313 314 317 320 321 321 321 321 320 321 321 322 323 323 323 323 324 324 324 323 325 326 325 325 325 325 324 324 325 326 327 327 328 328 328 329 329 329 329 329 330 330 330 331 331 331 332 332 333 335 334 333 333 334 334 334 334 333 332 332 332 332 332 332 330 329 329 329 329
306 306 307 309 309 309 310 310 310 311 311 312 312 312 312 313 313 312 312 314 317 319 319 320 321 321 320 320 321 322 322 322 323 324 324 324 323 323 325 325 324 323 324 325 324 323 324 326 326 328 328 328 328 328 328 329 329 330 331 331 331 331 332 332 332 332 333 334 334 332 332 333 333 333 333 333 332 331 332 332 331 331 330 329 328 329 329
Wind_Speed
30 30 30 27 28 29 30 29 29 33 34 29 25 17 5 4 5 2 5 10 8 6 4 3 3 3 1 1 2 2 3 4 4 3 4 5 5 5 5 6 7 6 5 5 4 4 5 6 7 5 6 6 2 4 6 8 9 8 6 6 5 1 3 5 3 1 2 4 5 3 2 4 7 6 4 5 5 5 5 4 2 3 3 2 4 5 1
28 29 28 25 25 27 28 28 27 29 29 25 19 11 4 4 4 2 4 7 5 6 3 2 4 2 2 3 4 4 4 5 5 4 4 4 4 5 5 6 6 4 4 5 5 4 4 7 7 5 5 2 4 4 8 9 9 9 4 5 7 5 4 4 5 4 5 5 5 5 5 6 7 4 4 5 6 4 4 2 2 5 5 4 5 5 2
27 28 27 24 23 25 26 25 25 25 25 22 13 6 4 4 3 2 1 2 2 3 3 3 3 2 2 5 5 4 4 4 4 6 5 4 4 5 5 4 4 5 5 6 7 7 6 6 4 4 5 3 3 3 8 9 10 5 2 1 8 6 4 5 6 6 5 5 4 3 4 6 6 4 5 7 8 7 6 4 4 6 4 3 6 5 3
26 26 25 22 21 23 24 24 24 23 22 21 13 6 5 4 2 1 1 1 0 1 1 3 4 2 3 4 4 5 6 4 3 5 5 4 4 6 6 5 6 7 8 9 9 9 9 7 4 5 5 3 3 3 7 9 7 2 2 4 8 4 5 7 7 7 5 3 1 0 2 4 6 6 8 9 9 9 7 6 5 4 2 4 6 5 2
24 25 24 21 19 20 22 22 23 22 20 18 11 6 4 3 2 3 2 1 1 2 1 1 3 1 2 3 2 4 6 3 3 4 4 2 4 6 6 6 7 7 8 9 9 9 10 8 7 8 6 2 3 4 7 7 5 5 4 9 7 3 6 9 10 9 6 3 0 1 4 7 7 7 9 10 10 10 10 8 5 2 3 5 3 3 6
22 23 22 19 17 17 20 21 22 21 17 13 8 4 3 2 2 2 2 2 2 1 1 2 2 3 3 3 3 6 7 6 4 3 3 3 4 4 6 7 7 5 5 6 7 8 9 9 9 8 6 4 4 6 7 7 7 8 8 8 5 5 7 9 10 10 5 2 2 3 6 8 7 7 8 9 11 11 11 11 6 4 7 7 1 4 8
21 21 20 18 15 14 17 20 21 21 15 8 4 4 2 2 2 0 0 3 4 4 4 4 5 6 4 4 5 7 8 7 4 2 4 6 4 4 6 5 3 4 4 5 7 6 6 8 7 4 4 6 6 6 6 6 8 9 9 7 4 5 4 5 8 9 6 5 5 5 6 6 6 8 8 9 11 11 11 11 8 6 8 8 3 5 9
19 18 17 15 12 12 16 18 20 21 15 5 3 3 2 3 3 2 2 5 5 5 5 5 6 5 4 5 6 6 8 7 4 2 5 6 3 3 5 4 5 5 4 5 6 1 3 4 3 1 3 5 5 5 4 5 8 11 9 7 5 4 2 3 6 8 7 7 6 6 7 7 7 9 8 9 10 10 10 9 7 7 8 8 7 8 8
17 16 15 13 10 11 15 17 19 19 14 6 3 2 3 4 4 3 5 5 2 4 4 4 5 5 6 6 5 6 7 6 4 5 7 8 6 3 5 6 6 5 5 4 1 3 6 7 6 5 5 4 3 3 2 1 7 11 9 7 7 6 4 4 7 8 7 8 9 8 7 7 9 10 10 10 10 10 9 8 7 8 9 9 9 9 6
15 14 12 9 9 11 13 15 17 17 13 7 4 2 4 5 3 2 4 4 2 3 4 4 5 4 3 4 5 5 5 2 4 6 6 8 7 3 5 7 7 5 5 1 5 8 9 9 8 7 7 6 6 5 5 5 5 8 9 8 7 8 6 5 7 8 6 8 9 8 7 8 9 8 9 11 12 10 9 8 7 8 9 8 8 5 0
14 12 9 7 7 10 12 13 14 13 11 7 4 4 5 5 3 2 4 5 4 3 4 5 5 3 2 4 5 6 6 4 4 5 4 4 4 3 5 8 6 4 2 5 8 10 11 10 9 7 7 8 7 6 6 7 7 6 7 7 7 9 9 7 6 7 6 6 7 6 8 9 5 1 2 7 9 9 10 9 8 7 7 7 5 0 4
12 9 5 5 7 9 11 12 11 9 8 5 4 4 4 3 4 3 4 5 4 3 4 5 5 4 4 5 6 7 8 7 5 5 7 7 7 7 7 7 6 3 6 9 11 12 9 7 6 6 7 8 8 7 8 9 8 7 8 8 8 10 10 7 6 7 6 4 6 8 10 6 2 4 3 0 3 6 8 9 8 6 7 8 6 3 4
10 6 3 4 7 8 9 10 9 7 6 4 2 2 2 2 3 3 3 5 6 4 4 6 6 7 8 7 7 9 9 8 8 8 10 10 11 11 8 6 6 6 9 12 13 12 8 6 6 6 7 7 7 8 9 8 7 8 9 9 9 10 9 6 5 6 5 5 7 10 6 2 5 5 4 3 2 5 6 7 8 8 8 8 7 5 5
7 3 2 4 6 7 8 8 7 5 4 3 2 3 3 2 3 3 3 4 5 4 4 5 5 6 8 8 9 9 9 9 10 10 10 10 11 11 9 6 7 7 8 9 10 7 6 5 6 7 7 7 8 8 8 6 3 5 8 8 8 10 9 7 7 7 6 8 9 8 4 3 5 4 4 6 6 6 6 6 5 6 7 8 8 6 7
5 3 3 4 5 6 7 7 6 4 3 2 2 3 4 3 4 4 2 3 5 4 4 5 5 4 4 5 5 6 6 7 7 8 9 9 10 11 9 7 8 8 7 6 6 5 5 6 7 8 8 9 9 7 7 6 4 3 5 6 7 9 8 8 9 7 7 9 9 8 7 8 8 7 7 8 7 5 6 6 4 5 8 9 9 9 9
5 4 3 4 5 6 6 6 6 5 4 3 3 4 5 4 5 5 3 3 4 4 2 3 5 5 6 6 4 5 5 4 4 5 7 8 10 11 8 6 7 8 7 6 5 4 5 6 8 8 8 8 7 6 6 6 5 4 3 6 9 8 7 8 9 8 8 9 9 8 9 8 6 6 7 8 6 4 4 7 5 6 10 10 10 11 11
5 5 5 4 5 6 6 6 6 5 4 3 3 4 4 4 4 5 4 3 4 5 4 4 4 4 4 5 4 3 3 3 3 4 4 4 6 7 5 6 6 7 6 6 5 5 7 7 7 8 7 3 2 5 5 6 7 6 5 7 10 8 6 8 10 10 9 9 9 8 7 4 4 7 7 7 6 6 6 7 4 6 11 11 11 11 11
5 5 6 5 5 5 6 6 6 6 6 4 4 6 6 5 5 5 5 4 5 6 4 3 6 6 4 4 4 2 2 3 2 3 4 4 3 3 4 6 5 5 5 6 6 7 8 8 7 8 6 2 1 3 3 5 8 7 5 5 7 7 7 8 11 11 10 10 10 8 7 3 7 8 8 9 8 6 8 6 1 6 10 10 11 11 11
6 5 5 6 6 5 6 7 6 6 6 5 5 6 6 5 5 7 6 4 5 5 2 2 4 7 4 4 4 2 2 3 2 2 4 3 2 5 6 4 3 4 4 6 7 7 8 8 6 6 6 4 2 3 4 4 5 5 5 5 5 6 7 8 9 10 10 9 9 9 7 3 8 8 7 8 7 7 6 2 2 7 10 10 10 10 10
6 5 4 6 6 6 6 7 7 6 7 6 6 7 7 5 5 8 9 6 5 7 8 7 8 9 7 6 6 5 3 3 2 2 4 2 5 6 5 5 3 3 5 6 8 7 8 9 7 5 7 6 3 2 4 4 3 3 3 3 3 3 5 8 8 8 9 9 9 10 7 4 12 12 6 6 7 4 2 4 3 5 9 9 8 9 9
5 4 5 6 6 7 7 7 7 7 7 7 6 8 8 5 4 7 10 9 6 6 6 5 7 10 10 9 9 8 7 6 4 3 4 3 4 3 3 1 2 3 3 4 6 6 5 7 7 5 6 6 2 2 6 7 5 2 1 2 3 2 3 6 4 3 6 7 6 4 3 3 12 11 4 7 6 1 2 5 5 5 8 8 6 7 9
4 4 5 6 6 7 7 7 7 7 7 6 7 7 7 4 3 4 6 8 9 10 10 11 13 15 17 17 17 16 14 13 11 7 5 3 2 2 4 5 5 3 3 3 5 5 4 5 6 5 6 6 4 6 9 9 5 4 2 3 4 3 2 1 1 1 3 5 2 1 3 1 9 7 1 2 6 1 2 3 5 6 7 6 5 7 8
3 4 5 6 6 7 7 8 7 7 6 6 7 8 7 5 4 3 4 7 10 13 18 20 18 17 18 20 21 22 20 18 18 14 8 4 3 3 4 5 5 4 2 3 4 4 3 3 4 4 6 6 6 7 9 8 7 6 4 2 0 3 5 3 1 2 4 5 3 2 3 1 6 6 1 2 2 1 1 2 5 7 6 6 6 8 9
3 4 5 5 6 7 8 8 8 7 7 8 8 9 9 7 5 5 6 8 7 8 11 12 9 8 8 7 8 12 15 17 20 19 16 11 5 2 2 2 4 3 1 3 5 5 4 3 3 4 5 3 4 7 8 7 7 6 4 3 3 3 4 4 3 2 3 2 1 3 4 3 3 6 4 1 1 0 1 0 4 7 7 6 7 8 9
4 4 4 4 6 7 7 6 7 7 8 9 10 10 9 8 6 5 6 7 5 5 6 5 6 8 8 6 5 7 9 11 14 16 19 19 13 7 3 1 2 3 3 5 5 5 4 4 4 5 5 2 2 6 7 5 4 3 4 7 5 4 3 6 7 6 6 4 4 7 8 5 4 5 5 3 2 2 1 2 5 8 8 7 7 7 8
4 4 4 5 6 5 5 5 6 8 8 9 10 10 9 8 6 5 6 7 5 4 6 6 5 5 5 6 8 9 8 10 11 13 16 19 19 17 13 8 6 6 6 6 6 5 5 4 5 6 6 2 1 4 5 3 2 3 5 5 1 4 4 5 6 7 8 7 5 7 9 7 4 3 4 2 1 2 2 3 6 9 9 8 7 6 6
4 4 5 5 5 5 5 5 6 7 8 10 10 9 9 8 7 7 8 7 5 3 5 6 4 3 7 12 15 13 10 12 13 14 16 17 17 18 16 11 8 7 7 6 5 4 5 5 5 5 5 2 2 4 3 2 3 4 5 4 3 4 6 6 5 6 7 3 2 5 5 5 3 4 2 2 2 3 4 5 7 9 9 8 8 7 6
4 4 5 6 5 4 4 5 5 4 5 7 8 9 9 10 10 10 10 8 7 5 5 5 7 9 11 12 12 9 8 10 12 14 15 16 16 16 14 10 7 6 6 6 5 4 5 6 5 4 3 2 3 5 3 3 4 5 6 5 4 4 5 4 3 4 2 2 5 6 4 3 4 8 7 3 3 5 6 7 8 9 9 9 9 9 8
4 4 6 6 6 5 4 4 4 4 4 5 6 8 10 11 11 12 11 11 10 8 6 6 8 8 7 7 7 6 7 10 12 13 14 15 15 15 13 9 7 6 5 5 5 5 6 6 5 3 1 1 3 4 4 5 6 6 5 4 3 2 2 2 2 2 0 2 4 5 6 5 6 8 9 6 3 6 8 8 9 9 9 9 9 9 8
4 4 5 6 6 6 5 4 4 4 4 4 5 7 7 6 5 6 8 11 12 9 5 6 5 4 5 7 7 5 5 8 11 12 14 14 13 13 12 9 7 6 5 5 5 6 5 5 5 4 3 2 3 5 4 5 7 7 5 2 2 3 3 3 3 3 2 1 4 5 6 6 6 6 6 4 3 4 5 7 9 9 9 9 9 8 7
5 5 6 6 6 6 5 5 5 4 4 4 5 5 3 1 1 2 3 8 11 8 5 5 5 5 4 4 5 5 5 6 9 11 12 12 11 11 12 9 6 6 6 5 5 6 5 5 6 6 4 4 4 5 5 6 8 6 1 2 1 1 2 3 3 3 3 3 4 6 7 5 4 4 3 3 2 2 3 4 7 9 8 9 9 8 8
5 5 6 6 6 5 5 5 5 6 6 7 7 7 6 5 5 6 3 6 10 7 4 4 4 4 3 2 3 4 5 6 7 7 8 9 9 9 10 9 6 6 6 6 5 5 6 6 6 6 4 4 4 5 5 7 8 5 1 2 2 1 2 3 3 2 2 3 5 6 7 6 5 5 5 5 3 1 1 2 6 8 8 8 9 9 8
6 6 6 6 6 6 6 6 6 7 9 10 12 13 13 13 13 10 4 5 7 6 4 3 4 3 2 2 2 3 3 4 5 5 6 7 7 6 7 7 6 6 6 6 5 4 5 5 6 6 3 3 3 6 6 6 8 7 6 6 6 6 5 6 5 4 4 3 3 5 6 6 5 5 5 5 3 1 1 3 6 7 8 9 9 9 8
6 6 7 7 6 6 7 7 7 8 9 10 11 10 8 8 9 10 9 6 4 5 3 3 4 3 3 3 2 2 1 3 4 5 5 6 8 6 6 6 6 5 6 6 5 5 5 4 5 6 4 4 5 6 6 7 9 9 8 8 8 7 7 7 7 7 6 5 5 6 5 3 2 3 4 3 2 3 4 5 7 8 9 8 9 9 8
7 8 8 8 7 7 7 7 7 8 9 9 8 7 6 6 7 11 14 9 3 3 3 2 3 3 3 3 3 2 3 3 3 3 3 5 8 6 5 5 5 5 6 6 5 6 5 4 4 5 5 5 6 6 6 7 9 8 8 8 7 6 7 6 6 6 5 4 5 4 3 2 3 5 5 5 5 7 7 8 9 11 10 8 9 9 8
8 8 7 7 6 6 6 6 7 7 6 5 4 4 3 4 6 11 15 10 4 3 2 2 3 3 3 3 1 2 4 3 2 2 2 4 6 5 5 6 6 4 4 5 6 7 5 3 3 5 6 5 6 6 6 7 8 9 9 9 7 7 7 7 6 6 5 3 2 2 3 4 6 7 5 5 6 8 9 9 11 12 9 8 9 8 7
7 6 5 4 4 5 6 6 6 6 5 4 2 1 1 4 6 8 9 7 5 4 3 3 3 4 4 3 2 3 3 2 1 2 3 4 4 4 5 5 5 4 4 6 7 6 3 2 4 7 7 6 6 6 5 6 8 8 9 9 8 8 8 8 8 9 8 5 4 4 4 6 7 7 6 6 8 9 11 11 11 9 7 7 8 7 7
5 3 3 4 4 4 3 3 5 4 4 4 4 3 4 5 3 4 5 4 4 5 4 3 4 5 5 4 2 2 2 2 1 2 3 2 2 4 5 4 3 3 4 6 5 3 3 4 5 7 7 6 6 6 5 6 8 8 7 7 7 7 8 8 8 9 9 8 6 5 5 6 7 7 7 7 9 10 11 10 8 6 5 6 7 7 8
2 1 2 3 3 2 1 1 1 3 5 4 5 4 4 4 3 2 3 3 3 4 4 4 5 5 5 5 4 1 0 2 3 2 3 1 1 3 4 3 1 2 5 5 3 3 5 5 5 6 7 5 4 2 2 3 5 5 5 5 6 6 7 7 8 9 9 9 8 7 7 6 6 7 7 7 7 8 8 7 7 6 5 6 7 8 8
1 1 2 2 1 2 4 4 4 5 3 4 5 3 2 3 3 2 2 3 3 3 3 3 3 4 5 6 5 1 1 2 3 2 2 1 1 1 2 2 1 2 6 5 3 3 5 4 4 5 4 1 2 2 1 2 3 3 3 5 6 7 7 8 8 9 10 10 11 11 10 8 7 7 7 7 7 8 8 7 6 7 7 7 8 9 9
1 1 2 2 3 5 6 5 3 3 2 3 3 2 2 2 2 1 2 3 3 3 3 2 3 3 4 5 4 2 2 1 2 2 1 1 0 1 2 2 1 2 5 3 2 2 4 4 5 4 1 3 3 1 2 2 3 3 4 5 6 6 7 8 9 9 10 10 10 10 10 10 9 7 6 6 6 6 7 6 6 7 8 9 9 9 10
3 4 6 7 8 7 5 4 3 3 2 2 2 2 2 2 1 2 3 3 2 1 2 2 3 1 1 3 3 2 1 1 1 3 3 1 1 1 2 2 2 4 3 2 1 2 4 4 5 2 3 4 1 2 2 2 3 4 5 6 6 6 7 7 8 9 10 10 9 8 9 10 10 8 7 6 6 7 7 7 8 9 9 9 10 10 10
6 6 6 6 5 4 3 3 3 2 1 1 0 1 2 2 2 2 2 2 1 0 1 1 2 1 1 2 2 2 1 1 2 3 2 1 1 2 3 3 3 3 1 1 2 4 4 4 3 1 3 1 2 2 2 2 4 4 5 5 6 6 7 7 7 8 9 10 10 9 9 10 10 9 9 8 8 9 8 9 10 10 9 10 11 11 12
4 4 4 3 2 1 1 2 2 1 2 2 2 2 3 3 3 2 2 1 1 1 1 1 2 2 2 1 1 2 2 2 1 2 2 2 2 3 3 3 2 1 0 2 4 4 4 3 1 2 2 0 1 1 1 2 3 4 5 6 7 7 7 7 6 6 7 8 9 9 9 10 10 10 9 10 10 10 8 9 10 11 11 11 11 12 13
3 3 2 1 1 1 0 1 2 3 3 3 3 4 4 3 2 2 2 0 1 2 2 2 3 3 1 1 1 1 1 1 1 2 1 1 3 4 3 1 1 1 2 4 4 4 3 2 1 2 2 1 2 1 2 2 3 4 6 7 7 7 8 7 6 5 4 5 6 7 8 9 9 9 9 10 10 10 9 10 12 13 13 13 13 13 14
2 1 1 1 1 2 1 1 2 3 3 3 3 4 3 2 1 0 1 1 1 2 3 3 3 3 1 1 1 1 1 2 2 1 1 2 3 2 1 1 2 3 4 4 4 3 2 0 2 2 1 2 2 2 2 2 3 3 4 6 7 8 8 8 7 6 4 4 5 6 7 8 8 8 9 9 10 10 11 13 15 16 16 14 13 14 15
1 1 1 1 1 2 3 3 2 2 2 2 2 2 2 2 1 1 2 2 2 2 3 3 2 2 1 0 1 1 2 1 1 1 1 2 1 0 0 2 3 3 3 4 3 1 1 2 2 2 2 2 2 2 2 2 3 4 4 5 6 7 8 8 7 6 5 4 4 4 5 7 8 9 9 9 9 10 12 14 16 16 16 14 14 14 15
1 1 2 2 2 2 3 3 2 2 2 2 3 2 2 2 2 0 2 3 2 2 3 3 2 2 1 1 2 2 2 2 2 1 1 1 1 1 1 3 4 3 3 3 1 2 2 2 2 3 2 2 2 2 2 3 4 5 5 6 6 7 8 7 7 7 6 5 3 3 4 5 7 8 9 9 10 11 12 14 16 16 15 14 15 15 16
1 1 2 2 2 2 3 3 3 3 2 2 2 3 2 2 1 0 2 3 3 3 2 2 2 2 1 1 1 2 2 2 2 1 1 2 3 2 2 3 4 4 3 1 1 2 2 2 3 2 2 2 2 2 3 3 3 4 5 6 6 6 7 7 7 7 6 5 4 3 4 5 6 7 8 9 9 11 13 15 16 16 15 16 17 17 17
1 2 2 3 3 3 2 3 5 5 3 2 2 2 2 2 1 1 3 4 4 3 2 2 2 1 0 1 2 2 1 1 1 1 2 4 3 2 3 4 2 2 2 1 1 2 2 2 2 2 2 2 2 3 4 4 4 4 5 5 5 5 6 7 8 8 6 5 4 4 5 5 6 7 8 8 8 11 13 15 16 15 15 16 17 17 18
1 2 3 3 4 3 2 2 4 4 3 2 2 2 2 2 1 2 4 4 4 3 2 2 2 1 1 2 2 1 1 1 2 2 3 3 2 3 3 2 2 4 3 2 2 2 2 2 2 2 2 3 3 4 4 4 4 5 5 5 5 5 6 7 8 7 6 5 4 3 4 5 6 7 8 10 11 12 12 13 15 15 16 16 17 18 18
2 2 2 3 4 5 4 4 4 4 3 3 3 3 3 2 2 3 4 4 3 2 1 1 2 2 2 1 1 0 0 2 3 3 2 2 3 2 1 1 2 0 3 2 2 1 1 1 2 2 3 4 4 4 5 5 5 4 5 5 5 5 6 6 7 7 6 5 4 4 4 4 5 7 8 11 12 11 10 11 15 17 16 16 17 18 18
Wind_Direction
335 338 342 346 350 352 354 356 357 354 354 358 353 341 316 320 338 355 344 339 325 279 240 167 214 229 88 1 246 249 264 255 254 243 226 232 227 218 238 252 248 248 253 263 264 243 235 225 221 226 222 221 180 120 166 189 190 199 197 163 154 180 230 228 233 202 131 105 109 146 195 231 238 236 235 252 259 258 273 303 317 263 246 234 261 271 108
331 336 340 344 347 351 353 356 358 358 359 358 345 330 329 325 308 282 330 333 302 266 263 223 218 189 148 246 236 218 244 259 258 256 242 234 236 235 241 242 236 242 251 254 258 249 235 227 219 235 242 189 84 133 181 191 200 207 206 164 171 195 214 215 229 216 193 186 175 169 182 214 236 224 197 236 253 248 257 274 277 266 258 251 271 282 89
328 332 337 340 344 349 352 353 358 358 356 357 346 313 305 304 260 211 306 324 282 276 317 315 273 215 219 250 245 225 227 231 251 280 274 248 255 259 252 246 241 247 250 248 254 255 249 233 214 241 244 166 108 182 194 199 208 217 334 146 172 192 207 204 230 233 218 218 210 199 200 205 219 209 190 219 226 211 225 245 239 248 240 217 255 283 75
325 329 333 338 341 347 349 350 355 356 353 354 344 296 295 315 289 256 222 141 252 260 9 306 281 272 263 253 239 240 238 202 200 266 258 229 256 265 258 259 250 240 242 246 246 239 234 233 233 250 239 182 120 165 190 206 208 150 16 205 181 188 211 208 234 249 249 249 176 75 271 224 215 212 201 212 217 210 222 248 254 255 240 221 236 262 291
322 325 330 335 338 345 348 347 352 355 353 353 341 288 275 302 317 340 338 309 246 184 152 271 278 305 290 271 239 245 252 233 191 217 228 228 265 263 252 249 246 235 233 243 246 234 224 225 237 251 247 197 104 147 190 207 176 130 181 204 189 196 209 207 225 239 252 282 105 155 249 252 251 235 212 208 207 207 219 238 259 276 257 259 223 205 255
319 323 327 333 337 343 347 345 349 353 353 353 341 287 265 293 324 12 351 295 264 230 26 344 307 278 260 268 270 252 254 255 228 209 231 244 254 259 234 220 235 253 250 252 250 232 222 222 227 239 242 216 157 161 187 194 169 167 192 194 193 227 213 198 215 224 225 240 222 214 237 251 258 245 224 209 203 209 224 236 242 237 253 276 40 172 236
316 320 324 331 337 344 347 345 348 353 355 355 318 286 289 295 293 30 228 277 289 299 315 315 285 263 247 248 251 247 249 253 247 252 265 244 226 254 248 219 235 272 260 250 246 233 234 230 215 215 245 232 206 182 182 180 178 190 196 183 204 253 220 187 215 221 206 193 199 217 229 234 237 234 226 214 211 216 228 236 235 232 249 268 272 233 245
312 316 322 331 339 346 349 347 348 354 0 358 282 282 332 322 321 358 279 271 280 282 277 271 264 249 229 236 240 241 247 252 252 253 261 253 216 224 268 294 322 304 264 237 235 249 337 283 250 345 272 239 223 209 194 175 183 198 200 182 191 238 215 186 218 223 208 192 190 206 220 227 230 227 220 219 224 225 229 240 240 230 243 253 250 251 251
308 312 320 332 345 351 352 348 346 355 5 355 288 306 0 323 322 334 294 280 269 263 254 250 262 249 226 229 232 233 237 249 280 266 253 260 268 289 315 329 330 293 237 215 238 9 344 304 301 310 282 272 282 258 274 256 195 197 199 188 190 207 200 181 211 231 219 195 198 206 211 229 240 234 223 219 226 232 233 238 237 237 251 250 240 250 251
304 309 319 339 356 353 350 346 344 355 8 356 304 339 359 311 268 245 278 277 243 253 251 234 249 258 252 245 242 245 241 240 286 271 239 237 254 292 328 327 320 273 226 189 2 339 316 297 295 292 276 279 284 270 277 287 244 207 198 196 195 203 205 196 215 239 228 193 202 211 208 228 240 236 230 225 225 236 242 240 234 236 252 258 249 256 202
300 308 321 350 359 347 344 343 342 353 10 5 325 344 1 330 288 246 261 261 244 246 254 243 242 261 294 265 247 251 251 233 245 264 250 236 247 289 314 308 298 276 305 2 340 316 302 292 285 277 264 261 257 251 254 260 258 238 213 203 198 204 218 220 219 242 235 183 182 210 222 232 238 200 241 237 231 234 240 246 244 225 230 256 271 252 112
298 306 325 356 351 341 338 337 337 349 4 359 328 336 2 341 304 273 256 263 255 231 242 251 260 278 276 264 257 255 252 247 253 272 277 282 286 290 299 295 278 304 355 342 321 308 292 262 242 238 241 240 235 239 245 241 236 235 225 217 207 206 218 222 217 239 241 178 179 222 232 228 160 93 86 236 246 241 245 256 259 237 223 235 240 204 158
295 305 331 346 339 334 333 331 327 339 355 349 316 314 340 334 295 268 268 274 261 250 263 271 273 271 265 263 264 262 262 266 273 272 271 276 280 278 279 283 286 318 339 325 313 307 282 232 211 218 219 217 221 228 232 231 225 220 221 223 219 214 217 218 219 233 235 205 211 231 237 160 125 118 111 125 193 220 235 249 245 230 222 216 212 191 156
288 292 313 324 328 328 329 327 319 328 346 335 291 284 295 290 274 276 291 277 265 272 288 281 270 258 256 260 263 263 264 264 262 260 257 260 268 271 273 287 303 319 325 314 305 290 258 229 219 219 211 209 218 216 203 197 203 215 217 219 223 225 221 217 221 224 227 231 228 230 245 212 187 188 182 188 203 209 223 247 235 206 200 196 188 170 152
270 256 283 306 318 323 326 326 316 312 324 313 274 268 273 264 257 268 283 282 281 280 261 266 286 288 267 266 267 265 262 254 249 250 248 250 262 267 270 286 305 308 305 302 295 278 255 237 224 217 212 212 218 213 196 179 150 173 215 217 218 227 225 219 224 220 218 239 240 230 241 240 223 217 205 203 218 222 228 254 247 184 184 188 181 169 164
245 240 257 288 308 314 318 322 313 299 300 289 262 264 269 254 236 241 251 265 274 275 287 319 321 305 279 270 265 264 268 265 265 260 244 238 248 254 261 285 299 296 292 280 270 270 256 238 229 226 222 217 216 218 210 199 173 145 173 205 207 216 219 217 228 226 215 233 243 233 240 244 221 199 189 192 204 195 210 252 247 178 174 183 179 172 171
235 232 236 263 300 310 313 316 312 297 286 273 259 261 262 248 226 226 232 237 247 263 302 332 313 286 270 267 258 248 256 265 276 275 261 252 254 255 273 298 283 269 276 274 257 248 242 235 231 231 228 213 223 227 212 215 213 181 160 188 197 204 212 212 226 232 219 223 238 240 244 239 157 157 171 171 163 165 202 246 250 162 167 179 179 173 171
230 224 229 248 279 304 311 312 309 295 280 261 254 260 258 252 238 222 223 239 251 258 281 296 272 267 281 301 307 328 316 286 269 265 268 275 292 297 312 318 285 232 232 255 247 236 236 234 229 234 227 144 120 242 211 212 224 204 172 185 192 197 210 215 226 233 223 219 233 244 245 194 128 144 160 144 140 182 220 243 213 153 169 177 178 174 167
230 228 231 241 260 287 303 303 299 288 275 257 251 259 254 241 231 224 224 237 244 248 285 348 278 271 289 308 300 307 314 299 296 286 261 244 326 327 302 288 270 233 226 243 240 231 235 234 229 239 236 192 175 236 225 215 226 203 181 200 203 198 205 215 228 235 229 227 234 242 244 175 129 137 144 145 174 221 232 225 141 166 170 171 176 173 162
233 236 243 247 260 278 291 294 290 279 269 255 249 258 256 238 229 228 230 242 257 260 269 278 273 274 277 270 264 265 270 259 238 261 268 281 8 338 271 213 207 241 236 235 232 225 231 235 225 225 238 230 202 214 227 220 215 204 204 218 215 202 214 221 224 228 232 234 230 237 248 160 137 138 145 185 218 242 175 147 147 165 166 165 172 168 159
230 243 255 260 270 277 279 283 282 274 264 248 242 259 262 242 228 235 237 247 262 261 266 282 285 281 276 269 270 275 274 267 264 278 291 312 355 333 268 261 333 278 247 242 236 227 233 242 232 221 236 238 207 204 231 225 205 190 267 254 207 185 229 240 230 211 227 232 222 234 289 141 155 160 176 209 209 23 74 170 155 144 164 164 161 159 158
226 246 260 266 275 274 269 272 275 272 261 241 232 251 257 233 212 232 238 245 252 256 271 288 289 281 273 268 266 263 259 263 272 281 289 295 299 282 287 309 313 297 312 309 261 239 235 242 238 232 232 230 219 222 233 235 219 184 181 229 214 159 137 253 304 335 262 267 277 328 7 130 185 188 8 234 199 143 345 210 164 146 164 164 153 154 154
233 262 270 272 275 274 269 269 271 264 252 241 233 242 255 254 237 236 247 253 259 266 271 275 278 277 270 264 259 256 252 251 253 253 248 249 265 262 261 278 292 300 333 337 304 289 278 257 251 248 242 238 235 229 227 235 239 220 202 234 296 105 121 157 210 328 299 291 299 311 355 350 218 210 51 9 221 166 4 224 170 149 155 155 150 152 151
252 274 278 272 273 279 275 268 263 254 245 245 240 238 250 261 260 260 261 256 261 276 273 262 255 262 273 274 261 250 244 240 240 238 232 228 236 244 223 249 282 288 334 359 337 321 299 276 262 249 244 244 248 240 230 231 239 234 225 240 234 184 184 209 219 272 287 276 3 354 354 352 283 236 212 235 268 278 15 258 152 142 143 143 140 147 152
259 270 275 279 285 289 283 268 256 249 245 248 249 245 246 250 249 253 262 263 269 287 290 276 251 254 272 293 274 246 240 236 232 227 222 220 223 231 249 345 328 306 340 342 320 300 280 264 246 235 231 218 237 244 240 239 244 231 232 243 231 188 205 235 231 229 240 249 304 325 316 297 274 242 223 217 206 187 133 70 125 134 133 129 130 144 156
260 257 261 283 293 290 285 275 260 251 248 250 253 251 249 250 244 232 247 270 279 263 268 282 272 251 265 284 274 262 252 239 229 221 218 218 221 231 247 272 291 297 309 309 298 296 288 272 255 240 230 218 266 255 246 253 272 253 245 250 196 134 187 232 235 232 238 244 277 318 311 285 264 240 225 215 163 155 140 117 131 137 133 127 128 140 157
258 254 254 276 294 292 287 285 275 261 252 250 252 253 252 253 248 234 237 258 272 255 254 268 274 293 304 294 284 273 254 237 228 220 217 218 220 226 234 246 262 278 289 286 279 275 265 259 257 245 235 248 287 264 256 269 266 256 247 230 178 198 227 234 235 236 238 246 359 3 326 286 315 358 329 225 178 167 156 144 146 147 145 141 136 132 137
260 255 253 266 288 295 290 293 293 280 259 253 256 262 261 256 252 246 240 242 251 266 285 287 290 302 304 296 285 270 240 225 218 212 210 213 217 220 223 229 237 249 262 268 267 258 244 240 243 242 242 262 254 238 240 256 249 249 251 233 216 240 255 253 253 250 238 45 24 6 334 298 342 358 346 316 211 188 179 168 161 157 153 152 149 143 139
266 273 266 270 281 285 278 280 283 279 273 272 277 278 270 260 253 247 239 233 239 255 283 291 282 288 302 304 295 273 234 214 208 207 208 209 211 214 217 218 222 230 242 254 259 256 246 238 242 248 234 256 258 241 235 245 243 239 244 236 216 229 253 253 266 271 228 57 17 357 339 323 327 337 338 330 270 217 198 183 172 162 159 160 157 152 149
264 286 283 276 276 277 271 264 264 275 286 282 280 279 268 251 242 246 237 224 220 229 262 283 280 295 316 306 289 266 224 203 202 205 208 209 210 211 211 212 216 224 236 246 249 251 252 244 245 243 207 204 262 260 239 244 250 244 240 235 203 218 237 236 242 258 271 10 13 347 323 319 324 324 328 332 304 263 230 191 168 160 163 163 153 145 147
256 276 288 283 274 268 267 260 256 266 279 268 262 275 276 201 97 359 268 208 201 211 247 270 274 291 298 273 256 260 249 215 202 203 206 210 213 210 206 206 210 212 223 240 242 244 255 251 243 241 218 203 243 263 253 251 253 245 223 47 39 284 277 265 260 285 309 333 332 309 299 312 334 324 323 350 357 297 263 194 153 148 157 158 145 137 142
270 280 290 289 280 269 268 268 259 253 254 249 248 262 279 276 287 317 319 181 188 210 253 270 271 284 289 249 240 254 251 223 202 200 201 203 209 207 200 202 210 211 220 241 244 237 244 246 245 251 231 185 211 256 259 255 257 255 17 27 350 321 306 278 263 275 295 304 309 300 295 313 336 339 340 349 350 309 281 146 134 140 149 144 132 129 132
280 283 285 289 291 281 267 264 263 262 264 264 262 265 269 266 263 266 245 174 191 224 253 277 275 273 291 300 261 211 225 223 201 194 196 192 195 198 194 198 211 209 207 223 235 233 238 241 241 246 228 175 217 256 256 252 262 271 276 276 272 270 270 270 267 259 248 247 263 272 279 300 326 332 327 324 322 305 226 157 153 161 164 151 138 135 135
282 287 287 287 286 277 269 267 265 266 269 270 270 272 271 261 245 226 200 183 219 245 237 259 272 266 278 281 223 157 278 264 198 186 197 188 185 195 193 189 202 207 202 211 229 235 238 242 241 240 231 218 237 252 253 255 264 272 275 275 275 272 266 264 264 262 256 242 233 241 257 287 316 297 282 266 229 212 208 193 184 188 185 167 150 146 147
289 286 284 283 279 277 282 276 261 260 264 262 264 270 265 254 229 202 189 188 232 257 222 236 264 276 290 268 191 120 345 299 208 195 207 180 181 200 200 182 193 206 201 205 225 233 232 235 238 236 232 227 229 237 250 261 264 266 270 274 274 268 262 258 256 259 263 261 250 238 211 198 237 250 245 225 207 202 200 198 203 206 195 168 148 148 152
298 286 281 287 286 278 273 254 236 242 252 248 266 293 266 221 194 189 192 204 252 287 295 304 285 285 298 278 226 13 337 299 194 184 200 175 177 201 206 194 198 199 186 200 222 227 218 206 228 238 234 230 234 240 254 265 265 266 272 278 281 275 269 268 269 270 265 251 236 198 169 207 238 244 233 217 211 203 197 201 213 214 195 161 148 152 155
302 292 285 286 266 246 245 230 216 221 222 214 241 318 120 131 137 165 188 212 241 244 260 297 286 278 292 292 311 350 334 303 169 178 195 183 172 183 198 205 199 184 191 216 223 223 207 188 235 248 245 243 252 261 271 277 276 277 280 284 286 284 280 279 281 280 274 253 221 195 194 218 232 233 222 211 205 201 199 203 210 211 191 163 155 154 156
303 294 276 260 233 222 217 173 174 208 239 237 236 223 179 167 157 156 171 202 222 212 215 248 259 259 265 264 272 333 348 330 309 206 187 186 180 181 193 205 190 182 214 222 207 198 216 221 234 249 253 254 261 271 282 285 283 283 283 281 279 276 273 268 263 262 262 256 240 224 218 226 231 230 223 212 202 200 202 203 201 198 185 168 157 151 155
312 266 230 236 231 238 282 103 203 274 283 254 228 218 197 191 197 184 178 199 217 208 209 229 242 245 245 248 255 271 341 288 276 222 171 169 185 177 190 202 182 206 230 222 170 173 225 231 228 242 251 249 248 264 284 278 278 285 287 283 278 269 261 254 244 236 235 238 240 241 241 238 234 231 227 215 202 199 201 197 189 181 171 161 157 156 159
277 227 216 215 229 279 303 308 298 292 278 221 213 228 222 202 209 202 182 200 222 221 214 222 234 232 237 253 265 240 157 247 279 264 166 148 94 163 204 207 161 219 234 220 164 183 234 241 229 235 239 194 101 67 330 290 289 305 298 288 286 276 264 256 246 237 233 233 235 239 243 242 237 235 229 213 197 194 195 190 183 178 167 158 159 161 162
321 273 263 297 309 302 302 300 275 247 229 212 216 228 224 217 225 224 208 221 228 214 200 225 246 223 212 231 247 227 176 212 293 287 249 195 96 232 219 180 147 235 240 214 156 192 236 246 245 241 198 88 79 4 310 307 315 321 314 307 304 291 275 265 254 244 238 235 233 234 236 235 235 239 234 213 194 191 190 181 177 178 171 163 162 162 162
282 284 291 299 297 288 277 254 220 208 218 228 227 231 238 241 234 219 223 237 252 179 178 222 255 256 200 216 236 237 204 197 253 256 241 185 144 211 211 170 185 233 232 178 162 219 227 236 247 235 95 75 18 304 305 318 323 327 328 326 319 302 287 276 263 249 240 234 230 227 225 224 226 230 228 211 193 189 187 178 174 177 175 169 166 163 161
273 272 277 281 275 254 227 212 202 193 199 193 187 264 258 242 227 230 233 228 226 232 226 232 257 271 233 218 223 222 207 220 251 257 242 188 172 215 218 206 219 236 213 150 217 233 230 239 250 137 95 87 296 295 306 314 321 327 331 334 331 319 306 291 273 259 247 239 234 227 221 217 216 218 217 209 196 191 185 174 168 169 170 169 167 163 161
275 252 246 249 248 240 228 210 195 202 220 210 204 226 232 216 204 216 224 195 180 229 276 278 267 256 222 187 200 213 204 206 240 239 221 199 203 218 220 219 222 226 211 227 234 237 241 251 260 89 101 155 293 334 318 312 327 327 321 327 336 335 327 315 295 273 255 242 233 226 220 214 208 204 205 205 201 196 182 165 162 166 169 171 169 164 163
256 226 225 251 265 267 264 202 201 215 222 213 207 222 234 227 201 196 201 215 298 295 295 283 268 258 211 134 173 242 209 182 208 222 213 213 222 222 228 250 245 227 237 241 237 234 238 243 125 100 101 17 352 343 297 309 333 323 312 317 329 337 339 336 323 304 277 249 233 222 214 208 200 195 197 200 199 192 178 166 164 166 169 172 169 165 167
260 221 217 250 254 238 215 196 202 212 216 214 214 224 240 258 265 266 321 328 309 302 307 307 293 282 258 151 145 223 224 204 202 201 208 225 222 215 254 301 262 243 244 245 240 240 243 101 78 79 53 350 332 305 287 313 324 312 310 317 323 329 337 337 331 322 308 275 244 221 208 202 196 190 187 186 185 180 174 169 166 166 169 171 169 167 170
263 252 224 234 256 238 221 216 221 228 242 254 246 244 266 290 302 334 343 335 323 317 315 307 285 274 271 139 137 232 237 219 194 189 219 231 217 138 296 257 239 233 245 249 247 240 123 89 74 47 6 340 319 299 297 311 311 310 313 314 312 318 328 334 334 330 320 296 261 226 207 197 189 182 176 172 170 168 167 166 166 167 168 167 165 165 169
268 249 219 220 236 228 221 229 240 239 249 267 261 254 269 275 260 327 0 342 320 306 301 286 258 237 206 171 184 199 196 191 190 185 226 256 223 167 224 236 223 217 233 241 210 117 105 86 51 25 3 350 335 317 304 303 304 306 307 306 309 316 320 323 330 334 325 306 279 239 205 188 181 177 171 165 163 164 164 164 164 164 163 162 162 164 168
285 261 233 238 255 247 240 258 263 244 241 279 273 259 261 260 241 2 0 335 312 303 301 287 275 269 230 200 229 221 201 198 193 160 191 231 221 202 219 229 211 195 197 208 97 80 76 55 34 17 4 358 345 323 308 308 308 304 301 300 306 311 311 314 322 328 325 314 290 248 210 191 184 179 172 164 162 163 164 163 162 162 164 165 166 167 171
257 263 246 243 247 236 222 240 245 231 205 198 234 247 263 271 255 10 6 343 320 300 264 239 247 266 286 272 269 252 198 185 192 188 212 227 221 214 237 243 223 128 104 99 72 50 43 34 12 351 349 353 334 315 315 319 313 304 300 300 301 302 302 305 310 313 316 316 300 258 221 204 196 187 176 167 162 161 162 164 165 165 166 169 170 171 172
219 253 249 252 260 261 253 262 264 249 223 211 232 259 284 275 283 357 356 334 306 286 259 235 244 240 215 231 256 277 99 174 221 226 234 241 232 226 239 258 10 24 12 11 34 31 12 4 0 349 340 328 315 309 313 315 308 302 301 299 295 294 294 295 299 302 306 310 301 270 231 212 205 194 180 171 168 166 166 170 171 169 167 170 174 174 172
217 236 245 252 259 263 264 267 270 269 262 253 249 254 261 266 313 349 340 316 298 305 332 312 266 239 219 224 262 309 204 224 229 230 242 255 255 259 268 85 89 327 291 308 0 8 343 353 0 338 320 315 312 311 307 303 300 301 300 297 295 295 294 294 297 297 296 296 288 266 236 212 200 189 177 173 176 177 177 177 178 176 173 173 174 173 171